Regional Weather Roundup
Issued by NWS

Home | Current Version | Previous Version | Text Only | Print | Product List | Glossary Off
Versions: 1 2 3 4 5 6 7 8 9 10 11 12 13 14 15 16 17 18 19 20 21 22 23 24 25 26 27

000
ASUS45 KBOU 220607
RWRCO

WEATHER ROUNDUP FOR COLORADO
NATIONAL WEATHER SERVICE DENVER/BOULDER CO
1200 AM MDT WED MAR 22 2017

NOTE: "FAIR" INDICATES FEW OR NO CLOUDS BELOW 12000 FEET WITH NO
SIGNIFICANT WEATHER AND/OR OBSTRUCTIONS TO VISIBILITY.

COZ001>005-013-030-031-220700-
...NORTHWEST COLORADO...

CITY           SKY/WX    TMP DP  RH WIND       PRES   REMARKS
CRAIG          CLOUDY    47  27  45 N3        30.05F
HAYDEN         MOCLDY    48  21  34 SE3       30.08S
MEEKER         FAIR      41  27  57 NE6       30.07S
MOUNT WERNER   NOT AVBL
STEAMBOAT SPGS FAIR      50  26  38 N5        30.10S
WALDEN         NOT AVBL
$$

COZ006>008-011-220700-
...WEST CENTRAL VALLEYS...

CITY           SKY/WX    TMP DP  RH WIND       PRES   REMARKS
GRAND JUNCTION FAIR      57  30  35 E8        30.00F
MONTROSE       FAIR      50  30  46 S7        30.10F
EAGLE          FAIR      44  29  55 SE6       30.14S
RIFLE          FAIR      56  30  37 SE9       30.05F
DELTA          FAIR      56  29  35 NE9       30.06S
NUCLA          FAIR      50  28  43 SE9       30.11F
$$

COZ017>023-064>068-220700-
...SOUTHWEST COLORADO...

CITY           SKY/WX    TMP DP  RH WIND       PRES   REMARKS
DURANGO        FAIR      42  28  57 N6        30.17F
CORTEZ         FAIR      40  30  67 S6        30.11S
PAGOSA SPRINGS FAIR      43  30  61 CALM      30.24S
TELLURIDE      NOT AVBL
WOLF CREEK PAS FAIR      34  21  60 S17G23    30.45S WCI  23
$$

COZ009-010-012-014-032>034-037-058>063-220700-
...CENTRAL COLORADO...

CITY           SKY/WX    TMP DP  RH WIND       PRES   REMARKS
ASPEN          FAIR      45  30  55 SW8       30.17F
BUENA VISTA    FAIR      40  28  62 SE5       30.24R
COPPER MTN     FAIR      36  23  60 MISG      30.35S
BERTHOUD PASS  FAIR      30  19  64 W21G30    30.35F WCI  17
COTTONWOOD PAS FAIR      45  25  45 S5        30.29F
GUNNISON       FAIR      40  33  76 N5        30.24F
KREMMLING      FAIR      52  28  40 CALM      30.16S
LEADVILLE      FAIR      36  23  59 E7        30.26F
MONARCH PASS   FAIR      32  23  69 SW26      30.48F WCI  18
SALIDA         FAIR      47  34  61 SE9       30.30S
SUNLIGHT       NOT AVBL
WILKERSON PASS FAIR      32  25  74 SW9       30.37S WCI  24
$$

COZ069>075-220700-
...SAN LUIS VALLEY/SANGRE DE CRISTO MOUNTAINS...

CITY           SKY/WX    TMP DP  RH WIND       PRES   REMARKS
ALAMOSA        FAIR      40  25  55 E6        30.22F
LA VETA PASS   CLOUDY    45  25  45 S8G24     30.35F
SAGUACHE       FAIR      37  27  65 N8        30.24S
$$

COZ035-036-038>040-220700-
...NORTHERN COLORADO FRONT RANGE...

CITY           SKY/WX    TMP DP  RH WIND       PRES   REMARKS
DENVER INTL AP FAIR      47  35  63 S22G30    30.08F
DMNS CITY PARK   N/A     49  34  56 W2G8      30.08S
AURORA         PTCLDY    48  36  63 S24G31    30.09F
FRONT RANGE AP FAIR      48  36  61 S20G26    30.12S
ERIE MUNI ARPT FAIR      43  34  69 CALM      30.08F
BOULDER MUN AP FAIR      48  36  61 CALM      30.08F
CENTENNIAL     FAIR      47  35  63 S15       30.10F
BROOMFIELD     FAIR      46  36  66 NW9       30.09F
FORT COLLINS   FAIR      43  35  73 VRB6      30.09F
LONGMONT       FAIR      49  37  62 N7        30.10S
$$

COZ041-046-047-076>085-087-088-220700-
...PIKES PEAK/PALMER DIVIDE AND SOUTHERN FOOTHILLS...

CITY           SKY/WX    TMP DP  RH WIND       PRES   REMARKS
COLO. SPRINGS  MOCLDY    42  33  70 SE13      30.23F
A. F. ACADEMY  CLOUDY    43  34  71 SE14      30.22S
SCHRIEVER AFB  MOCLDY    37  32  81 S8        30.24R
ELLICOTT         N/A    N/A N/A N/A SE15      30.21S
FALCON         CLOUDY    39  32  77 S9        30.24S
FORT CARSON    MOCLDY    41  33  73 SE8       30.22S
LIMON          FAIR      39  31  72 S15       30.19F
MONUMENT HILL  FAIR      37  34  87 S24       30.19F
TRINIDAD       FAIR      56  34  43 W17G26    30.17R
$$

COZ042>045-048>051-090-091-220700-
...NORTHEAST COLORADO...

CITY           SKY/WX    TMP DP  RH WIND       PRES   REMARKS
GREELEY ARPT   FAIR      47  34  60 SE17G26   30.11S
AKRON          FAIR      41  25  53 SE23      30.19S
BURLINGTON     CLOUDY    43  24  47 SE21      30.23F
WRAY           NOT AVBL
STERLING       FAIR      43  27  52 S15G22    30.18S
HOLYOKE        FAIR      37  32  81 SE22G28   30.25S
FORT MORGAN    FAIR      42  28  55 SE16G23   30.17F
$$

COZ086-089-092>099-220700-
...SOUTHEAST COLORADO...

CITY           SKY/WX    TMP DP  RH WIND       PRES   REMARKS
PUEBLO         FAIR      46  34  62 E8        30.20F
LA JUNTA       FAIR      47  33  58 E16       30.19R
LAMAR          FAIR      46  29  51 E15       30.19F
SPRINGFIELD      N/A     42  34  73 E8        30.21S
$$




USA.gov is the U.S. government's official web portal to all federal, state and local government web resources and services.